Regional Weather Roundup
Issued by NWS

Home | Current Version | Previous Version | Text Only | Print | Product List | Glossary Off
Versions: 1 2 3 4 5 6 7 8 9 10 11 12 13 14 15 16 17 18 19 20 21 22 23 24 25 26 27 28 29 30 31 32 33 34 35 36 37 38 39 40 41 42 43 44 45 46 47 48 49 50

000
ASUS43 KLSX 221559
RWRMO

WEATHER SUMMARY FOR MISSOURI
NATIONAL WEATHER SERVICE SPRINGFIELD MO
1000 AM CST MON DEC 22 2014

NOTE: "FAIR" INDICATES FEW OR NO CLOUDS BELOW 12,000 FEET WITH NO
       SIGNIFICANT WEATHER AND/OR OBSTRUCTIONS TO VISIBILITY.
       CURRENT SKY AND/OR WEATHER CONDITIONS ARE NOT AVAILABLE FOR
       CHILLICOTHE AND FARMINGTON.

MOZ001>031-035>038-043-044-053-054-221700-
...NORTHERN AND WESTERN MISSOURI...

CITY           SKY/WX    TMP DP  RH WIND       PRES   REMARKS
KANSAS CTY INT LGT RAIN  43  43 100 S12       29.56F FOG
KANSAS C DTWN  LGT RAIN  44  41  89 S5        29.57F
LEE`S SUMMIT   LGT RAIN  42  40  92 S9        29.58F
ST JOSEPH      LGT RAIN  42  41  96 S9        29.57F FOG
CHILLICOTHE      N/A     42  38  85 SE8       29.62F
KIRKSVILLE     CLOUDY    39  38  96 SE13      29.65F FOG

$$
MOZ066>068-077>081-088>096-101>105-221700-
...SOUTHWEST MISSOURI...

CITY           SKY/WX    TMP DP  RH WIND       PRES   REMARKS
SPRINGFIELD    RAIN      44  42  93 SE10      29.62S FOG
JOPLIN         LGT RAIN  46  45  96 SE8       29.60S FOG

$$
MOZ032>034-039>042-045>050-055>058-069>072-221700-
...CENTRAL MISSOURI...

CITY           SKY/WX    TMP DP  RH WIND       PRES   REMARKS
COLUMBIA       CLOUDY    42  41  96 SE9       29.65F FOG
JEFFERSON CITY CLOUDY    43  41  93 E5        29.67F FOG
ROLLA          CLOUDY    44  42  93 S12       29.65F
SEDALIA        CLOUDY    46  41  82 S13       29.62F
WARRENSBURG    CLOUDY    43  39  87 SE9       29.60F
OSAGE BEACH    CLOUDY    45  39  81 SE6       29.64F

$$
MOZ051-052-059>065-221700-
...EAST CENTRAL MISSOURI...

CITY           SKY/WX    TMP DP  RH WIND       PRES   REMARKS
ST LOUIS INTL  LGT RAIN  44  41  89 SE13      29.73F FOG
SPIRIT OF STL  LGT RAIN  42  40  92 SE6       29.71S
ST CHARLES     LGT RAIN  42  41  96 SE13      29.71F FOG

$$
MOZ072>076-082>087-097>100-106>115-221700-
...SOUTH CENTRAL AND SOUTHEAST MISSOURI...

CITY           SKY/WX    TMP DP  RH WIND       PRES   REMARKS
CAPE GIRARDEAU LGT RAIN  47  46  97 SE14      29.79F FOG
FARMINGTON     CLOUDY    45  43  93 SE9       29.74S
POPLAR BLUFF   LGT RAIN  48  45  89 SE12      29.75F FOG
WEST PLAINS    LGT RAIN  45  43  93 S13       29.69F

$$



USA.gov is the U.S. government's official web portal to all federal, state and local government web resources and services.